SCP
0 0 0 0 0 0 0 0 0 0 0 0 0 0 0 0 0 0 0 0 0 0 0 0 0 0 0 0 0 0 0 0 0 0 0 0 0 0
0 0 0 0 0 0 0 0 0 0 0 0 0 0 0 0 0 0 0 0 0 0 0 0 0 0 0 0 0 0 0 0 0 0 0 0 0 0
0 0 0 0 0 0 0 0 0 0 0 0 0 0 0 0 0 0 0 0 0 0 0 0 0 0 0 0 0 0 0 0 0 0 0 0 0 0
0 0 0 0 0 0 0 0 0 0 0 0 0 0 0 0 0 0 0 0 0 0 0 0 0 0 0 0 0 0 0 0 0 0 0 0 0 0
0 0 0 0 0 0 0 0 0 0 0 0 0 0 0 0 0 0 0 0 0 0 0 0 0 0 0 0 0 0 0 0 0 0 0 0 0 0
0 0 0 0 0 0 0 0 0 0 0 0 0 0 0 0 0 0 0 0 0 0 0 0 0 0 0 0 0 0 0 0 0 0 0 0 0 0
0 0 0 0 0 0 0 0 0 0 0 0 0 0 0 0 0 0 0 0 0 0 0 0 0 0 0 0 0 0 0 0 0 0 0 0 0 0
0 0 0 0 0 0 0 0 0 0 0 0 0 0 0 0 0 0 0 0 0 0 0 0 0 0 0 0 0 0 0 0 0 0 0 0 0 0
0 0 0 0 0 0 0 0 0 0 0 0 0 0 0 0 0 0 0 0 0 0 0 0 0 0 0 0 0 0 0 0 0 0 0 0 0 0
0 0 0 0 0 0 0 0 0 0 0 0 0 0 0 0 0 0 0 0 0 0 0 0 0 0 0 0 0 0 0 0 0 0 0 0 0 0
0 0 0 0 0 0 0 0 0 0 0 0 0 0 0 0 0 0 0 0 0 0 0 0 0 0 0 0 0 0 0 0 0 0 0 0 0 0
0 0 0 0 0 0 0 0 0 0 0 0 0 0 0 0 0 0 0 0 0 0 0 0 0 0 0 0 0 0 0 0 0 0 0 0 0 0
0 0 0 0 0 0 0 0 0 0 0 0 0 0 0 0 0 0 0 0 0 0 0 0 0 0 0 0 0 0 0 0 0 0 0 0 0 0
0 0 0 0 0 0 0 0 0 0 0 0 0 0 0 0 0 0 0 0 0 0 0 0 0 0 0 0 0 0 0 0 0 0 0 0 0 0
0 0 0 0 0 0 0 0 0 0 0 0 0 0 0 0 0 0 0 0 0 0 0 0 0 0 0 0 0 0 0 0 0 0 0 0 0 0
0 0 0 0 0 0 0 0 0 0 0 0 0 0 0 0 0 0 0 0 0 0 0 0 0 0 0 0 0 0 0 0 0 0 0 0 0 0
0 0 0 0 0 0 0 0 0 0 0 0 0 0 0 0 0 0 0 0 0 0 0 0 0 0 0 0 0 0 0 0 0 0 0 0 0 0
0 0 0 0 0 0 0 0 0 0 0 0 0 0 0 0 0 0 0 0 0 0 0 0 0 0 0 0 0 0 0 0 0 0 0 0 0 0
0 0 0 0 0 0 0 0 0 0 0 0 0 0 0 0 0 0 0 0 0 0 0 0 0 0 0 0 0 0 0 0 0 0 0 0 0 0
0 0 0 0 0 0 0 0 0 0 0 0 0 0 0 0 0 0 0 0 0 0 0 0 0 0 0 0 0 0 0 0 0 0 0 0 0 0
0 0 0 0 0 0 0 0 0 0 0 0 0 0 0 0 0 0 0 0 0 0 0 0 0 0 0 0 0 0 0 0 0 0 0 0 0 0
0 0 0 0 0 0 0 0 0 0 0 0 0 0 0 0 0 0 0 0 0 0 0 0 0 0 0 0 0 0 0 0 0 0 0 0 0 0
0 0 0 0 0 0 0 0 0 0 0 0 0 0 0 0 0 0 0 0 0 0 0 0 0 0 0 0 0 0 0 0 0 0 0 0 0 0
Wind_Speed
7 7 5 3 3 3 3 3 4 2 2 3 2 1 1 2 8 5 7 15 19 20 21 22 23 24 26 27 28 29 30 31 31 31 31 31 31 31
5 7 5 4 4 3 3 3 2 4 3 3 3 3 2 4 8 5 7 16 16 19 21 22 23 24 25 26 28 30 31 31 31 31 31 31 31 30
6 7 6 5 4 3 3 3 3 3 4 3 3 2 3 4 5 5 6 6 8 17 20 22 23 23 25 27 29 30 30 30 30 30 30 30 30 30
8 7 7 5 5 4 4 4 4 4 4 4 3 3 5 4 5 6 6 6 6 15 20 22 21 23 25 28 29 29 29 29 29 30 30 30 30 30
9 9 8 8 7 5 5 5 4 4 4 5 4 3 4 4 5 6 6 5 7 11 17 17 19 23 26 27 28 28 28 28 29 30 30 30 30 29
7 7 8 9 8 7 6 6 5 5 5 5 5 4 4 4 4 5 7 5 7 9 10 12 18 22 24 25 26 27 28 29 30 30 29 28 28 28
6 7 7 10 11 9 7 7 7 6 5 5 5 4 5 3 3 3 7 10 9 4 7 8 11 11 12 18 22 25 29 30 30 29 28 28 28 28
8 7 7 8 12 16 16 14 12 8 7 5 6 7 8 4 3 5 6 8 7 3 8 13 9 11 10 9 21 29 30 29 28 29 29 29 29 28
8 7 7 7 9 8 12 17 15 18 17 9 9 10 7 5 4 7 7 8 9 7 9 12 9 11 10 12 26 29 28 28 29 30 30 29 28 28
8 8 9 8 9 9 8 9 10 11 12 9 9 9 6 5 6 7 7 6 8 6 6 8 8 10 12 12 20 24 25 28 29 30 29 29 28 28
8 8 9 9 13 15 10 9 11 11 14 18 19 16 17 16 11 3 2 3 7 4 2 5 6 10 12 10 11 20 25 28 29 29 29 29 28 25
7 8 12 14 15 16 11 9 12 11 6 7 10 12 10 9 12 6 4 4 4 5 3 4 5 7 10 7 8 11 15 22 27 28 29 27 26 16
8 8 8 17 19 19 17 11 16 12 6 7 6 6 5 4 5 5 5 5 5 6 5 4 5 4 6 10 10 10 11 12 15 17 20 24 26 21
10 7 8 15 17 19 15 16 19 14 5 5 5 6 5 6 5 6 7 7 7 9 8 7 6 7 8 11 12 10 11 13 13 12 11 19 21 24
9 13 14 16 15 13 15 17 11 6 5 6 7 6 5 5 4 4 5 5 7 8 9 10 9 9 9 10 11 12 13 12 10 10 12 13 13 13
9 7 11 13 11 9 6 7 5 4 6 7 6 4 3 3 4 4 3 3 3 5 7 8 9 10 9 11 12 14 12 10 10 12 13 12 12 11
4 1 2 2 4 4 3 3 3 3 4 4 4 3 3 4 4 4 3 3 3 3 4 4 6 8 10 12 11 11 11 11 11 12 13 13 12 10
7 4 4 4 5 4 3 3 2 3 4 4 4 4 4 4 4 4 3 4 4 5 5 4 4 5 4 6 10 10 9 10 11 12 12 12 13 11
6 4 3 3 2 2 2 2 3 3 3 3 4 4 4 4 4 4 4 4 4 5 5 4 3 3 5 7 7 7 9 11 11 11 10 10 12 12
2 3 3 2 2 2 2 2 3 2 2 2 3 3 3 3 3 4 4 4 4 4 4 4 4 4 4 6 6 8 14 12 10 11 11 10 9 13
2 2 2 1 1 1 2 2 2 2 2 2 2 3 3 3 3 4 4 5 4 3 5 6 5 7 6 4 6 7 7 13 15 11 10 9 8 6
2 2 1 1 1 1 1 1 2 2 2 2 2 3 3 3 4 5 4 4 4 4 5 6 6 5 3 3 6 8 9 9 13 16 12 10 7 7
2 2 2 2 2 2 2 2 3 3 3 3 3 3 3 3 4 4 4 4 4 5 4 4 3 3 3 3 5 6 9 9 7 7 6 13 17 15
Wind_Direction
128 125 121 122 117 117 124 140 146 177 269 287 289 252 284 324 332 337 326 323 330 330 330 329 328 328 328 327 326 324 322 320 318 317 315 314 312 309
135 134 130 133 130 127 131 133 139 162 223 257 255 261 279 297 314 319 306 317 320 322 324 323 325 326 326 325 324 323 321 319 318 316 315 313 310 308
146 148 148 147 145 146 144 149 159 161 213 262 257 257 263 265 292 287 286 289 303 316 318 321 323 324 325 325 323 321 320 319 318 316 314 312 309 308
163 159 161 159 162 164 168 178 184 187 201 249 265 258 254 257 276 287 297 300 298 308 316 319 321 324 325 323 321 320 320 319 316 314 313 312 310 309
170 172 173 170 180 181 186 193 196 203 204 231 261 255 264 265 289 289 285 278 295 308 313 316 321 323 322 321 320 320 319 316 315 315 314 313 311 310
177 180 179 185 190 187 195 202 199 207 213 233 254 261 261 263 278 304 313 310 310 309 308 319 319 320 319 318 318 318 316 316 317 316 315 315 314 314
187 192 195 200 203 199 202 200 198 208 213 229 251 263 266 270 281 296 307 314 310 299 318 314 315 312 314 316 317 315 318 318 317 317 318 318 317 315
197 202 204 209 219 222 225 221 210 206 209 217 242 254 265 258 263 283 300 312 311 317 325 312 314 308 311 308 312 317 317 317 318 320 320 318 315 314
201 201 208 213 210 223 236 240 237 236 227 218 239 249 257 250 261 279 279 282 282 308 316 301 308 305 308 309 313 312 314 317 320 320 318 317 317 316
209 207 212 214 209 212 223 236 242 245 244 244 246 254 250 245 244 263 279 288 285 277 282 286 302 304 307 305 306 309 316 319 319 318 318 319 319 317
219 215 218 222 227 225 224 236 249 252 253 249 249 254 258 262 260 257 269 295 295 293 250 267 296 311 304 297 302 312 316 317 317 319 321 321 319 320
224 223 226 229 235 234 229 230 248 255 240 248 254 259 261 263 264 251 226 235 262 288 274 283 296 319 308 294 304 310 312 313 317 320 320 320 323 323
230 230 229 238 241 240 237 234 246 256 245 239 244 242 236 231 231 226 220 224 236 248 261 290 289 290 274 297 305 306 305 312 317 315 317 320 322 323
234 233 230 242 246 248 247 249 257 260 250 241 242 241 235 230 225 221 225 233 241 256 269 274 272 279 288 293 296 302 309 310 311 309 312 319 320 320
234 239 242 247 251 253 255 258 260 252 247 246 247 246 232 223 210 216 228 241 255 261 266 266 267 274 276 282 290 296 307 309 305 310 314 315 316 317
244 246 253 256 255 252 253 258 251 244 245 253 259 249 204 197 209 209 219 227 255 267 259 260 267 274 277 277 279 287 295 294 303 308 311 311 310 308
216 211 211 224 235 241 244 240 238 242 250 254 254 245 227 223 225 213 216 211 231 261 278 272 274 275 269 272 277 278 287 292 297 308 314 310 308 309
209 210 220 222 228 233 240 247 238 245 253 253 248 244 242 239 238 221 216 220 244 261 272 283 301 305 294 275 254 272 284 294 305 310 307 306 308 312
206 201 206 210 218 228 239 247 254 256 255 252 250 243 243 244 240 235 232 236 248 259 269 277 282 284 304 305 290 278 297 304 306 305 304 304 304 307
188 189 189 187 194 212 235 250 259 261 252 255 256 251 240 237 238 239 237 239 251 262 274 274 263 256 266 285 293 290 298 299 303 307 308 304 295 301
158 148 150 156 181 221 245 252 256 256 259 259 255 250 240 232 239 242 243 247 248 249 265 272 275 292 288 279 285 287 292 307 315 310 311 311 312 307
148 157 165 181 200 227 249 255 260 258 259 253 252 250 241 235 243 244 241 242 242 246 259 276 292 297 264 261 284 295 301 309 318 324 328 335 330 325
171 181 196 212 221 227 231 240 245 249 246 244 245 243 236 235 239 244 246 244 250 258 268 283 289 279 265 267 281 292 299 306 312 321 316 336 345 340